This is the latest recevied weather packets stored in our database for station/object GW1477. If no packets are shown the sender has not sent any weather packets the latest 10 day(s).
| Time | Temp. | Humidity | Pressure | Rain* | Wind** | Luminosity | Snow |
|---|---|---|---|---|---|---|---|
| 1777856079 | 7.22° C | 51% | - | 0 mm | - | - | - |
| 1777849972 | 12.22° C | 34% | - | 0 mm | - | - | - |
| 1777848143 | 12.22° C | 34% | - | 0 mm | - | - | - |
| 1777836981 | 12.22° C | 31% | - | 0 mm | - | - | - |
| 1777836644 | 12.78° C | 31% | - | 0 mm | - | - | - |
| 1777832334 | 11.11° C | 33% | - | 0 mm | - | - | - |
| 1777830500 | 11.11° C | 35% | - | 0 mm | - | - | - |
| 1777824410 | 8.33° C | 40% | - | 0 mm | - | - | - |
| 1777823677 | 7.78° C | 41% | - | 0 mm | - | - | - |
| 1777821138 | 7.22° C | 44% | - | 0 mm | - | - | - |
| 1777820790 | 6.11° C | 46% | - | 0 mm | - | - | - |
| 1777820078 | 6.67° C | 47% | - | 0 mm | - | - | - |
| 1777818641 | 6.67° C | 48% | - | 0 mm | - | - | - |
| 1777816828 | 6.67° C | 48% | - | 0 mm | - | - | - |
| 1777808179 | 0° C | 79% | - | 0 mm | - | - | - |
| 1777807091 | -0.56° C | 80% | - | 0 mm | - | - | - |
| 1777804936 | -0.56° C | 79% | - | 0 mm | - | - | - |
| 1777802774 | -0.56° C | 78% | - | 0 mm | - | - | - |
| 1777798814 | 0° C | 79% | - | 0 mm | - | - | - |
| 1777797760 | 0° C | 77% | - | 0 mm | - | - | - |
| 1777797038 | 0° C | 77% | - | 0 mm | - | - | - |
| 1777796692 | 0° C | 76% | - | 0 mm | - | - | - |
| 1777791984 | 0° C | 78% | - | 0 mm | - | - | - |
| 1777789092 | 1.67° C | 75% | - | 0 mm | - | - | - |
| 1777786957 | 2.22° C | 75% | - | 0 mm | - | - | - |
* Rain since midnight (hover to see other rain measurements)
** Current wind speed in m/s (hover to see current wind gust speed)